Location: Unspecified
(0.0000°N, 0.0000°E)
Time: 08:14:20
(UTC+00:00)

N. Korean satellite - Pass Details

Date: 30 July 2021
Orbit: 451 x 498 km, 97.2° (Epoch: 31 July)

Event Time Altitude Azimuth Distance (km) Brightness Sun altitude
Rises 05:04:12 0° 5° (N) 2,485 10.5 -14.8°
Reaches altitude 10° 05:06:16 10° 1° (N) 1,605 9.4 -14.3°
Maximum altitude 05:09:40 58° 281° (W) 540 6.5 -13.5°
Drops below altitude 10° 05:13:01 10° 201° (SSW) 1,593 8.8 -12.7°
Enters shadow 05:13:09 - 201° (SSW) 1,646 8.9 -12.6°
